Ontario, OR

10:05 PM MST on February 19, 2017 (GMT -0700)
Ontario Municipal

Weather History for KONO - March, 2014

Change the Weather History Date:

Monday, March 31, 2014

  Actual Average Record
Temperature  
Mean Temperature 46 °F 47 °F  
Max Temperature 59 °F 61 °F 81 °F (2004)
Min Temperature 33 °F 33 °F 19 °F (1954)
Degree Days  
Heating Degree Days 19 18  
Month to date heating degree days 588 670  
Since 1 July heating degree days 5344 5300  
Cooling Degree Days 0 0  
Month to date cooling degree days 0 0  
Year to date cooling degree days 0 0  
Moisture  
Dew Point 31 °F    
Average Humidity 60    
Maximum Humidity 89    
Minimum Humidity 30    
Precipitation  
Precipitation T in 0.03 in 0.38 in (1957)
Month to date precipitation 1.26 1.01  
Year to date precipitation 3.18 2.99  
Sea Level Pressure  
Sea Level Pressure 29.91 in    
Wind  
Wind Speed 5 mph (SE)    
Max Wind Speed 17 mph    
Max Gust Speed 22 mph    
Visibility 10 miles    
Events      
T = Trace of Precipitation, MM = Missing Value Source: NWS Daily Summary

Daily Weather History Graph

Daily Weather History Graph

Search for Another Location

Airport or City:

Trip Planner

Search our weather history database for the weather conditions in past years. The results will help you decide how hot, cold, wet, or windy it might be!

Date:

Astronomy

Mar. 31, 2014 Rise Set
Actual Time 7:31 AM MDT 8:13 PM MDT
Civil Twilight 7:01 AM MDT 8:43 PM MDT
Nautical Twilight 6:27 AM MDT 9:17 PM MDT
Astronomical Twilight 5:51 AM MDT 9:53 PM MDT
Moon 7:55 AM MDT (3/31) 9:41 PM MDT (3/31)
Length of Visible Light 13h 41m
Length of Day
12h 42m
New Moon, 1% of the Moon is Illuminated
Mar 31
New Moon
Apr 7
First Quarter
Apr 15
Full
Apr 22
Last Quarter
Apr 29
New

Hourly Weather History & Observations

Time (MDT) Temp. Windchill Dew Point Humidity Pressure Visibility Wind Dir Wind Speed Gust Speed Precip Events Conditions
12:53 AM 39.0 °F - 30.0 °F 70% 30.01 in 10.0 mi Calm Calm - N/A   Clear
1:53 AM 36.0 °F 30.3 °F 28.9 °F 76% 30.02 in 10.0 mi WSW 6.9 mph - N/A   Clear
2:53 AM 36.0 °F 32.1 °F 28.9 °F 76% 30.03 in 10.0 mi West 4.6 mph - N/A   Clear
3:53 AM 36.0 °F 33.3 °F 28.9 °F 76% 30.02 in 10.0 mi West 3.5 mph - N/A   Overcast
4:53 AM 37.0 °F - 30.9 °F 79% 30.02 in 10.0 mi Calm Calm - N/A   Overcast
5:53 AM 36.0 °F - 30.0 °F 79% 30.00 in 10.0 mi Calm Calm - N/A   Partly Cloudy
6:53 AM 37.0 °F - 32.0 °F 82% 30.01 in 10.0 mi Calm Calm - N/A   Overcast
7:53 AM 34.0 °F 31.0 °F 30.0 °F 85% 30.02 in 10.0 mi West 3.5 mph - N/A   Partly Cloudy
8:53 AM 36.0 °F - 32.0 °F 86% 30.02 in 10.0 mi Calm Calm - N/A   Overcast
9:53 AM 41.0 °F - 33.1 °F 73% 30.01 in 10.0 mi Calm Calm - N/A   Overcast
10:53 AM 45.0 °F - 32.0 °F 60% 30.01 in 10.0 mi Calm Calm - N/A   Clear
11:53 AM 51.1 °F - 33.1 °F 50% 29.98 in 10.0 mi ESE 6.9 mph - N/A   Mostly Cloudy
12:53 PM 53.1 °F - 30.9 °F 43% 29.94 in 10.0 mi SSE 11.5 mph 17.3 mph N/A   Clear
1:53 PM 55.9 °F - 28.9 °F 36% 29.91 in 10.0 mi South 15.0 mph 21.9 mph N/A   Scattered Clouds
2:53 PM 57.0 °F - 28.9 °F 34% 29.87 in 10.0 mi SE 9.2 mph 19.6 mph N/A   Partly Cloudy
3:53 PM 57.0 °F - 26.1 °F 30% 29.83 in 10.0 mi SE 8.1 mph - N/A   Partly Cloudy
4:53 PM 57.9 °F - 27.0 °F 31% 29.81 in 10.0 mi SE 8.1 mph - N/A   Overcast
5:53 PM 57.9 °F - 28.0 °F 32% 29.79 in 10.0 mi ESE 10.4 mph - N/A   Overcast
6:53 PM 55.0 °F - 28.9 °F 37% 29.78 in 10.0 mi East 8.1 mph - N/A   Mostly Cloudy
7:53 PM 52.0 °F - 32.0 °F 47% 29.78 in 10.0 mi South 8.1 mph - N/A   Scattered Clouds
8:53 PM 50.0 °F - 33.1 °F 52% 29.76 in 10.0 mi East 3.5 mph - N/A   Overcast
9:53 PM 50.0 °F - 33.1 °F 52% 29.75 in 10.0 mi East 4.6 mph - N/A   Overcast
10:53 PM 48.9 °F - 34.0 °F 56% 29.74 in 10.0 mi East 4.6 mph - N/A   Overcast
11:53 PM 46.9 °F - 35.1 °F 63% 29.72 in 10.0 mi Calm Calm - N/A   Overcast